Lakehurst NAS, NJ

10:08 AM EDT on July 28, 2017 (GMT -0400)
Lakehurst Naes

Weather History for KNEL - November, 2012

Change the Weather History Date:

Friday, November 2, 2012

  Actual Average Record
Temperature  
Mean Temperature 48 °F -  
Max Temperature 41 °F 58 °F 77 °F (2001)
Min Temperature 43 °F 41 °F 32 °F (2000)
Degree Days  
Heating Degree Days 17    
Moisture  
Dew Point 36 °F    
Average Humidity 66    
Maximum Humidity 85    
Minimum Humidity 47    
Precipitation  
Precipitation 0.00 in - - ()
Sea Level Pressure  
Sea Level Pressure 29.68 in    
Wind  
Wind Speed 9 mph (West)    
Max Wind Speed 20 mph    
Max Gust Speed 25 mph    
Visibility 10 miles    
Events      
Averages and records for this station are not official NWS values.
T = Trace of Precipitation, MM = Missing Value Source: NWS Daily Summary

Daily Weather History Graph

Daily Weather History Graph

Search for Another Location

Airport or City:

Trip Planner

Search our weather history database for the weather conditions in past years. The results will help you decide how hot, cold, wet, or windy it might be!

Date:

Astronomy

Nov. 02, 2012 Rise Set
Actual Time 7:28 AM EDT 5:53 PM EDT
Civil Twilight 6:59 AM EDT 6:21 PM EDT
Nautical Twilight 6:27 AM EDT 6:53 PM EDT
Astronomical Twilight 5:56 AM EDT 7:25 PM EDT
Moon 8:38 PM EDT (11/2) 10:46 AM EDT (11/2)
Length of Visible Light 11h 21m
Length of Day
10h 25m
Waning Gibbous, 87% of the Moon is Illuminated
Nov 2
Waning Gibbous
Nov 6
Last Quarter
Nov 13
New
Nov 20
First Quarter
Nov 28
Full

Hourly Weather History & Observations

Time (EDT) Temp. Windchill Dew Point Humidity Pressure Visibility Wind Dir Wind Speed Gust Speed Precip Events Conditions
12:00 AM 45.0 °F 42.6 °F 39.9 °F 82% 29.65 in 10.0 mi WSW 4.6 mph - N/A   Overcast
1:00 AM 44.1 °F 41.5 °F 39.9 °F 85% 29.65 in 10.0 mi WSW 4.6 mph - N/A   Partly Cloudy
2:00 AM 44.1 °F 41.5 °F 39.0 °F 82% 29.65 in 10.0 mi WSW 4.6 mph - N/A   Scattered Clouds
3:00 AM 45.0 °F 41.8 °F 39.0 °F 80% 29.65 in 10.0 mi WSW 5.8 mph - N/A   Overcast
4:00 AM 46.0 °F 43.1 °F 39.0 °F 76% 29.65 in 10.0 mi West 5.8 mph - N/A   Overcast
5:00 AM 46.0 °F 41.9 °F 37.9 °F 73% 29.65 in 10.0 mi West 8.1 mph - N/A   Mostly Cloudy
6:00 AM 45.0 °F 41.2 °F 37.9 °F 76% 29.65 in 10.0 mi West 6.9 mph - N/A   Overcast
7:00 AM 45.0 °F 41.2 °F 37.0 °F 74% 29.65 in 10.0 mi West 6.9 mph - N/A   Overcast
8:00 AM 43.0 °F 38.2 °F 37.0 °F 80% 29.67 in 10.0 mi West 8.1 mph - N/A   Mostly Cloudy
9:00 AM 48.0 °F - 36.0 °F 63% 29.67 in 10.0 mi WNW 11.5 mph - N/A   Scattered Clouds
10:00 AM 48.0 °F - 35.1 °F 61% 29.68 in 10.0 mi WNW 12.7 mph - N/A   Scattered Clouds
11:00 AM 48.0 °F - 35.1 °F 61% 29.68 in 10.0 mi West 12.7 mph 21.9 mph N/A   Clear
12:00 PM 51.1 °F - 35.1 °F 54% 29.68 in 10.0 mi West 12.7 mph - N/A   Clear
1:00 PM 51.1 °F - 34.0 °F 52% 29.66 in 10.0 mi West 18.4 mph 21.9 mph N/A   Clear
2:00 PM 52.0 °F - 34.0 °F 50% 29.65 in 10.0 mi WNW 17.3 mph 25.3 mph N/A   Partly Cloudy
3:00 PM 53.1 °F - 33.1 °F 47% 29.65 in 10.0 mi WNW 19.6 mph 24.2 mph N/A   Scattered Clouds
4:00 PM 50.0 °F - 33.1 °F 52% 29.67 in 10.0 mi WNW 13.8 mph 19.6 mph N/A   Overcast
5:00 PM 48.0 °F - 34.0 °F 58% 29.68 in 10.0 mi West 8.1 mph - N/A   Overcast
6:00 PM 48.0 °F - 34.0 °F 58% 29.70 in 10.0 mi WNW 13.8 mph 19.6 mph N/A   Overcast
7:00 PM 46.9 °F - 36.0 °F 66% 29.73 in 10.0 mi WNW 10.4 mph - N/A   Overcast
8:00 PM 46.0 °F 40.6 °F 35.1 °F 66% 29.75 in 10.0 mi WNW 11.5 mph 18.4 mph N/A   Overcast
9:00 PM 45.0 °F 39.3 °F 34.0 °F 65% 29.77 in 10.0 mi WNW 11.5 mph - N/A   Mostly Cloudy
10:00 PM 44.1 °F 38.6 °F 33.1 °F 65% 29.78 in 10.0 mi WNW 10.4 mph 17.3 mph N/A   Scattered Clouds
11:00 PM 43.0 °F 36.0 °F 33.1 °F 68% 29.79 in 10.0 mi WNW 13.8 mph 19.6 mph N/A   Clear